Location: Byszew
(52.1813°N, 19.2693°E)
Time: 20:55:36
(UTC+00:00)

Cosmos 2322 Rocket - Visible Passes

Search period start: 24 June 2021 00:00
Search period end: 04 July 2021 00:00
Orbit: 831 x 852 km, 71.0° (Epoch: 24 June)

Date Brightness Start Highest point End Pass type
(mag) Time Alt. Az. Time Alt. Az. Time Alt. Az.
24 Jun 5.1 01:23:16 10° NNW 01:27:43 23° NE 01:32:08 10° E visible
24 Jun 4.0 19:48:25 10° WSW 19:53:42 37° NW 19:59:00 10° NNE visible
24 Jun 5.5 21:36:21 10° NW 21:39:30 15° NNW 21:42:38 10° NNE visible
24 Jun 5.8 23:24:16 10° NNW 23:26:14 12° N 23:28:12 10° NNE visible
25 Jun 5.1 01:08:14 10° NNW 01:12:37 22° NE 01:16:59 10° E visible
25 Jun 5.5 21:21:09 10° NW 21:24:22 15° NNW 21:27:36 10° NNE visible
25 Jun 5.8 23:09:11 10° NNW 23:11:06 12° N 23:13:01 10° NNE visible
26 Jun 5.1 00:53:12 10° NNW 00:57:32 21° NNE 01:01:49 10° E visible
26 Jun 5.5 21:05:59 10° WNW 21:09:15 15° NNW 21:12:33 10° NNE visible
26 Jun 5.8 22:54:06 10° NNW 22:55:59 11° N 22:57:52 10° NNE visible
27 Jun 5.1 00:38:10 10° NNW 00:42:26 21° NNE 00:46:39 10° E visible
27 Jun 5.5 20:50:47 10° WNW 20:54:09 16° NNW 20:57:31 10° NNE visible
27 Jun 5.7 22:39:01 10° NNW 22:40:51 11° N 22:42:42 10° NNE visible
28 Jun 5.1 00:23:08 10° NNW 00:27:20 20° NNE 00:31:30 10° E visible
28 Jun 5.4 20:35:37 10° WNW 20:39:02 16° NNW 20:42:28 10° NNE visible
28 Jun 5.7 22:23:55 10° NNW 22:25:44 11° N 22:27:33 10° NNE visible
29 Jun 5.1 00:08:05 10° NNW 00:12:14 20° NNE 00:16:20 10° ENE visible
29 Jun 5.3 20:20:26 10° WNW 20:23:55 16° NNW 20:27:25 10° NNE visible
29 Jun 5.6 22:08:49 10° NNW 22:10:36 11° N 22:12:23 10° NNE visible
29 Jun 5.1 23:53:03 10° NNW 23:57:08 19° NNE 00:01:10 10° ENE visible
30 Jun 2.9 01:36:43 10° NNW 01:42:23 61° NE 01:47:58 10° SE visible
30 Jun 5.3 20:05:15 10° WNW 20:08:49 17° NNW 20:12:24 10° NNE visible
30 Jun 5.6 21:53:43 10° NNW 21:55:29 11° N 21:57:14 10° NNE visible
30 Jun 5.0 23:38:01 10° NNW 23:42:01 19° NNE 23:46:00 10° ENE visible
01 Jul 3.0 01:21:41 10° NNW 01:27:19 59° NE 01:32:53 10° SE visible
01 Jul 5.2 19:50:05 10° WNW 19:53:43 17° NNW 19:57:21 10° NNE visible
01 Jul 5.5 21:38:37 10° NNW 21:40:21 11° N 21:42:06 10° NNE visible
01 Jul 5.0 23:22:59 10° NNW 23:26:56 19° NNE 23:30:50 10° ENE visible
02 Jul 3.0 01:06:38 10° NNW 01:12:16 56° NE 01:17:49 10° SE visible
02 Jul 5.5 21:23:30 10° NNW 21:25:14 11° N 21:26:58 10° NNE visible
02 Jul 5.0 23:07:57 10° NNW 23:11:49 18° NNE 23:15:39 10° ENE visible
03 Jul 3.1 00:51:36 10° NNW 00:57:12 54° NE 01:02:44 10° SE visible
03 Jul 5.4 21:08:23 10° NNW 21:10:07 11° N 21:11:50 10° NNE visible
03 Jul 4.9 22:52:55 10° NNW 22:56:43 18° NNE 23:00:29 10° ENE visible
